Jennings, LA

9:00 AM CDT on March 23, 2017 (GMT -0500)
Jennings

Weather History for K3R7 - November, 2013

Change the Weather History Date:

Saturday, November 9, 2013

  Actual Average (KCWF) Record (KCWF)
Temperature  
Mean Temperature 57 °F -  
Max Temperature 68 °F 71 °F 89 °F (2011)
Min Temperature 46 °F 55 °F 42 °F (2000)
Degree Days  
Heating Degree Days 8    
Growing Degree Days 7 (Base 50)    
Moisture  
Dew Point 45 °F    
Average Humidity 68    
Maximum Humidity 92    
Minimum Humidity 34    
Precipitation  
Precipitation 0.00 in - - ()
Sea Level Pressure  
Sea Level Pressure 30.20 in    
Wind  
Wind Speed 3 mph (NNE)    
Max Wind Speed 8 mph    
Max Gust Speed -    
Visibility 9 miles    
Events      
Averages and records for this station are not official NWS values.
T = Trace of Precipitation, MM = Missing Value Source: NWS Daily Summary

Daily Weather History Graph

Daily Weather History Graph

Search for Another Location

Airport or City:

Trip Planner

Search our weather history database for the weather conditions in past years. The results will help you decide how hot, cold, wet, or windy it might be!

Date:

Astronomy

Nov. 09, 2013 Rise Set
Actual Time 6:31 AM CST 5:17 PM CST
Civil Twilight 6:06 AM CST 5:42 PM CST
Nautical Twilight 5:37 AM CST 6:11 PM CST
Astronomical Twilight 5:09 AM CST 6:39 PM CST
Moon 12:12 PM CST (11/9) 11:41 PM CST (11/9)
Length of Visible Light 11h 36m
Length of Day
10h 45m
Waxing Crescent, 44% of the Moon is Illuminated
Nov 9
Waxing Crescent
Nov 9
First Quarter
Nov 17
Full
Nov 25
Last Quarter
Dec 2
New

Hourly Weather History & Observations

Time (CST) Temp. Dew Point Humidity Pressure Visibility Wind Dir Wind Speed Gust Speed Precip Events Conditions
12:15 AM 48.0 °F 45.3 °F 90% 30.21 in 10.0 mi Calm Calm - N/A   Clear
12:35 AM 48.6 °F 45.3 °F 89% 30.20 in 10.0 mi Calm Calm - N/A   Clear
12:55 AM 49.5 °F 44.4 °F 83% 30.20 in 7.0 mi Calm Calm - N/A   Clear
1:15 AM 48.9 °F 45.0 °F 86% 30.20 in 7.0 mi Calm Calm - N/A   Clear
1:35 AM 49.3 °F 43.9 °F 82% 30.19 in 7.0 mi East 3.5 mph - N/A   Clear
1:55 AM 48.2 °F 44.1 °F 86% 30.19 in 7.0 mi East 3.5 mph - N/A   Clear
2:15 AM 48.2 °F 43.5 °F 84% 30.18 in 7.0 mi East 4.6 mph - N/A   Clear
2:35 AM 47.1 °F 43.2 °F 86% 30.18 in 7.0 mi East 3.5 mph - N/A   Clear
2:55 AM 47.3 °F 44.2 °F 89% 30.18 in 10.0 mi Calm Calm - N/A   Clear
3:15 AM 47.5 °F 44.6 °F 90% 30.17 in 7.0 mi ENE 3.5 mph - N/A   Clear
3:35 AM 47.3 °F 44.6 °F 90% 30.17 in 7.0 mi Calm Calm - N/A   Clear
3:55 AM 47.7 °F 44.1 °F 87% 30.19 in 10.0 mi Calm Calm - N/A   Clear
4:15 AM 46.4 °F 44.2 °F 92% 30.18 in 10.0 mi Calm Calm - N/A   Clear
4:35 AM 47.1 °F 44.2 °F 90% 30.18 in 10.0 mi Calm Calm - N/A   Clear
4:55 AM 47.5 °F 44.8 °F 90% 30.19 in 10.0 mi Calm Calm - N/A   Clear
5:15 AM 47.7 °F 44.8 °F 90% 30.20 in 10.0 mi Calm Calm - N/A   Clear
5:35 AM 47.8 °F 45.1 °F 90% 30.20 in 10.0 mi Calm Calm - N/A   Clear
5:55 AM 47.7 °F 45.1 °F 91% 30.21 in 10.0 mi Calm Calm - N/A   Clear
6:15 AM 48.2 °F 45.5 °F 90% 30.22 in 10.0 mi Calm Calm - N/A   Clear
6:35 AM 48.2 °F 45.5 °F 90% 30.22 in 10.0 mi Calm Calm - N/A   Clear
6:55 AM 48.2 °F 45.7 °F 91% 30.22 in 4.0 mi East 4.6 mph - N/A   Clear
7:15 AM 50.0 °F 46.0 °F 86% 30.23 in 4.0 mi East 3.5 mph - N/A   Clear
7:35 AM 50.4 °F 46.6 °F 87% 30.24 in 5.0 mi East 3.5 mph - N/A   Clear
7:55 AM 51.8 °F 46.8 °F 83% 30.24 in 4.0 mi ENE 3.5 mph - N/A   Haze
8:15 AM 53.8 °F 47.1 °F 78% 30.25 in 4.0 mi North - - N/A   Haze
8:35 AM 55.9 °F 47.5 °F 73% 30.24 in 7.0 mi East 3.5 mph - N/A   Clear
8:55 AM 59.0 °F 47.5 °F 66% 30.24 in 10.0 mi North - - N/A   Clear
9:15 AM 60.6 °F 44.4 °F 55% 30.25 in 10.0 mi North - - N/A   Clear
9:35 AM 61.9 °F 44.8 °F 53% 30.25 in 10.0 mi North - - N/A   Clear
9:55 AM 62.1 °F 44.8 °F 53% 30.24 in 10.0 mi North - - N/A   Clear
10:15 AM 62.1 °F 43.9 °F 51% 30.24 in 10.0 mi Calm Calm - N/A   Clear
10:35 AM 62.8 °F 42.3 °F 47% 30.24 in 10.0 mi NNW 4.6 mph - N/A   Clear
10:55 AM 62.6 °F 43.0 °F 49% 30.24 in 10.0 mi NNW 4.6 mph - N/A   Clear
11:15 AM 64.0 °F 43.0 °F 46% 30.24 in 10.0 mi North 5.8 mph - N/A   Clear
11:35 AM 63.9 °F 41.4 °F 44% 30.23 in 10.0 mi NNW 3.5 mph - N/A   Clear
11:55 AM 64.9 °F 42.8 °F 45% 30.22 in 10.0 mi North 4.6 mph - N/A   Clear
12:15 PM 64.9 °F 44.1 °F 47% 30.20 in 10.0 mi North - - N/A   Clear
12:35 PM 65.3 °F 41.7 °F 42% 30.19 in 10.0 mi North 4.6 mph - N/A   Clear
12:55 PM 66.4 °F 43.0 °F 43% 30.18 in 10.0 mi NNE 4.6 mph - N/A   Clear
1:15 PM 66.4 °F 39.2 °F 37% 30.18 in 10.0 mi North 5.8 mph - N/A   Clear
1:35 PM 67.5 °F 40.1 °F 37% 30.18 in 10.0 mi NNW 4.6 mph - N/A   Clear
1:55 PM 66.7 °F 39.6 °F 37% 30.18 in 10.0 mi North 4.6 mph - N/A   Clear
2:15 PM 68.2 °F 39.0 °F 34% 30.17 in 10.0 mi ENE 4.6 mph - N/A   Clear
2:35 PM 67.5 °F 41.7 °F 39% 30.17 in 10.0 mi NNE 6.9 mph - N/A   Clear
2:55 PM 66.7 °F 42.1 °F 41% 30.17 in 10.0 mi NNE 8.1 mph - N/A   Clear
3:15 PM 66.2 °F 41.9 °F 41% 30.17 in 10.0 mi NNE 8.1 mph - N/A   Clear
3:35 PM 66.6 °F 41.4 °F 40% 30.17 in 10.0 mi NNE 8.1 mph - N/A   Clear
3:55 PM 65.5 °F 42.4 °F 43% 30.18 in 10.0 mi NE 4.6 mph - N/A   Clear
4:15 PM 64.8 °F 43.5 °F 46% 30.18 in 10.0 mi NNE 6.9 mph - N/A   Clear
4:35 PM 64.0 °F 44.6 °F 49% 30.17 in 10.0 mi NNE 4.6 mph - N/A   Clear
4:55 PM 63.0 °F 45.7 °F 53% 30.18 in 10.0 mi NNE 4.6 mph - N/A   Clear
5:15 PM 62.2 °F 46.2 °F 56% 30.17 in 10.0 mi Calm Calm - N/A   Clear
5:35 PM 61.5 °F 47.3 °F 60% 30.18 in 10.0 mi North 3.5 mph - N/A   Clear
5:55 PM 60.3 °F 51.3 °F 72% 30.18 in 10.0 mi North 3.5 mph - N/A   Clear
6:15 PM 59.7 °F 50.0 °F 70% 30.18 in 10.0 mi NNE 5.8 mph - N/A   Clear
6:35 PM 59.9 °F 49.1 °F 67% 30.19 in 10.0 mi NNE 4.6 mph - N/A   Clear
6:55 PM 59.7 °F 48.7 °F 67% 30.19 in 10.0 mi North 3.5 mph - N/A   Clear
7:15 PM 59.2 °F 48.4 °F 67% 30.19 in 10.0 mi North 3.5 mph - N/A   Clear
7:35 PM 59.2 °F 48.6 °F 68% 30.20 in 10.0 mi NNE 3.5 mph - N/A   Clear
8:35 PM 58.6 °F 48.4 °F 69% 30.20 in 10.0 mi Calm Calm - N/A   Clear
8:55 PM 58.1 °F 49.8 °F 74% 30.21 in 10.0 mi North 3.5 mph - N/A   Scattered Clouds
9:15 PM 57.7 °F 49.8 °F 75% 30.21 in 10.0 mi North 3.5 mph - N/A   Scattered Clouds
9:35 PM 57.4 °F 49.5 °F 75% 30.22 in 10.0 mi North 4.6 mph - N/A   Clear
9:55 PM 57.2 °F 49.1 °F 74% 30.22 in 10.0 mi NNE 6.9 mph - N/A   Clear
10:15 PM 56.5 °F 49.3 °F 77% 30.22 in 10.0 mi NNE 8.1 mph - N/A   Scattered Clouds
10:35 PM 56.3 °F 49.1 °F 77% 30.22 in 10.0 mi NNE 5.8 mph - N/A   Scattered Clouds
10:55 PM 55.8 °F 48.7 °F 77% 30.22 in 10.0 mi NE 5.8 mph - N/A   Clear
11:15 PM 55.6 °F 48.4 °F 77% 30.22 in 10.0 mi NE 6.9 mph - N/A   Clear
11:35 PM 55.0 °F 48.0 °F 77% 30.22 in 10.0 mi NE 6.9 mph - N/A   Clear
11:55 PM 54.9 °F 47.7 °F 77% 30.22 in 10.0 mi NNE 3.5 mph - N/A   Scattered Clouds